Location: Coed Ely
(51.5661°N, 3.4150°W)
Time: 19:53:58
(UTC+00:00)

Cosmos 1655 Rocket - Pass Details

Date: 28 January 2021
Orbit: 971 x 1006 km, 83.0° (Epoch: 27 February)

Event Time Altitude Azimuth Distance (km) Brightness Sun altitude
Rises 19:49:49 0° 195° (SSW) 3,659 7.1 -26.8°
Reaches altitude 10° 19:52:20 10° 197° (SSW) 2,713 6.4 -27.2°
Maximum altitude 19:58:32 72° 282° (WNW) 1,021 4.1 -28.2°
Drops below altitude 10° 20:04:47 10° 7° (N) 2,729 6.3 -29.1°
Sets 20:07:19 0° 10° (N) 3,683 7.0 -29.5°
